Jackson, TN

8:48 AM CDT on June 26, 2017 (GMT -0500)
McKellar-Sipes Regional

Weather History for KMKL - April, 2014

Change the Weather History Date:

Friday, April 18, 2014

  Actual Average Record
Temperature  
Mean Temperature 61 °F 61 °F  
Max Temperature 72 °F 73 °F 91 °F (2006)
Min Temperature 50 °F 49 °F 29 °F (2001)
Degree Days  
Heating Degree Days 4 6  
Month to date heating degree days 159 144  
Since 1 July heating degree days 4049 3472  
Cooling Degree Days 0 2  
Month to date cooling degree days 31 22  
Year to date cooling degree days 31 33  
Growing Degree Days 11 (Base 50)    
Moisture  
Dew Point 48 °F    
Average Humidity 64    
Maximum Humidity 83    
Minimum Humidity 44    
Precipitation  
Precipitation T in 0.17 in 1.90 in (2013)
Month to date precipitation 2.45 2.81  
Year to date precipitation 16.45 15.80  
Snow  
Snow 0.00 in - - ()
Month to date snowfall T  
Snow Depth 0.00 in    
Sea Level Pressure  
Sea Level Pressure 30.22 in    
Wind  
Wind Speed 3 mph (East)    
Max Wind Speed 12 mph    
Max Gust Speed 16 mph    
Visibility 10 miles    
Events      
T = Trace of Precipitation, MM = Missing Value Source: NWS Daily Summary

Daily Weather History Graph

Daily Weather History Graph

Search for Another Location

Airport or City:

Trip Planner

Search our weather history database for the weather conditions in past years. The results will help you decide how hot, cold, wet, or windy it might be!

Date:

Astronomy

Apr. 18, 2014 Rise Set
Actual Time 6:19 AM CDT 7:31 PM CDT
Civil Twilight 5:52 AM CDT 7:57 PM CDT
Nautical Twilight 5:21 AM CDT 8:29 PM CDT
Astronomical Twilight 4:48 AM CDT 9:02 PM CDT
Moon 11:11 PM CDT (4/18) 8:45 AM CDT (4/18)
Length of Visible Light 14h 05m
Length of Day
13h 12m
Waning Gibbous, 87% of the Moon is Illuminated
Apr 18
Waning Gibbous
Apr 22
Last Quarter
Apr 29
New
May 6
First Quarter
May 14
Full

Hourly Weather History & Observations

Time (CDT) Temp. Dew Point Humidity Pressure Visibility Wind Dir Wind Speed Gust Speed Precip Events Conditions
12:53 AM 50.0 °F 44.1 °F 80% 30.24 in 10.0 mi Calm Calm - N/A   Overcast
1:53 AM 53.1 °F 45.0 °F 74% 30.23 in 10.0 mi Calm Calm - N/A   Overcast
2:53 AM 55.9 °F 42.1 °F 60% 30.22 in 10.0 mi Calm Calm - N/A   Overcast
3:53 AM 53.1 °F 44.1 °F 71% 30.21 in 10.0 mi Calm Calm - N/A   Overcast
4:53 AM 52.0 °F 43.0 °F 71% 30.23 in 10.0 mi Calm Calm - N/A   Partly Cloudy
5:53 AM 51.1 °F 46.0 °F 83% 30.23 in 10.0 mi Calm Calm - N/A   Overcast
6:53 AM 53.1 °F 48.9 °F 86% 30.24 in 10.0 mi Calm Calm - 0.00 in   Mostly Cloudy
7:53 AM 55.9 °F 48.9 °F 77% 30.25 in 10.0 mi Calm Calm - N/A   Clear
8:53 AM 61.0 °F 51.1 °F 70% 30.26 in 10.0 mi SSE 4.6 mph - N/A   Partly Cloudy
9:53 AM 63.0 °F 50.0 °F 63% 30.27 in 10.0 mi SSE 3.5 mph - N/A   Clear
10:53 AM 64.9 °F 48.9 °F 56% 30.27 in 10.0 mi SSE 6.9 mph - N/A   Clear
11:53 AM 64.9 °F 48.0 °F 54% 30.27 in 10.0 mi SE 4.6 mph - N/A   Partly Cloudy
12:53 PM 66.9 °F 48.0 °F 51% 30.25 in 10.0 mi NE 3.5 mph - N/A   Scattered Clouds
1:53 PM 71.1 °F 48.9 °F 45% 30.22 in 10.0 mi Variable 5.8 mph - N/A   Scattered Clouds
2:53 PM 72.0 °F 48.9 °F 44% 30.20 in 10.0 mi Variable 4.6 mph - N/A   Mostly Cloudy
3:53 PM 70.0 °F 48.0 °F 46% 30.18 in 10.0 mi NE 10.4 mph - N/A   Overcast
4:53 PM 71.1 °F 48.0 °F 44% 30.17 in 10.0 mi ENE 11.5 mph - N/A   Overcast
5:53 PM 70.0 °F 48.9 °F 47% 30.16 in 10.0 mi NE 6.9 mph - N/A   Mostly Cloudy
7:53 PM 64.9 °F 48.9 °F 56% 30.17 in 10.0 mi NNE 4.6 mph - N/A   Overcast
8:53 PM 63.0 °F 50.0 °F 63% 30.18 in 10.0 mi Calm Calm - N/A   Overcast
10:53 PM 59.0 °F 50.0 °F 72% 30.18 in 10.0 mi Calm Calm - N/A   Overcast
11:53 PM 55.9 °F 50.0 °F 80% 30.18 in 10.0 mi Calm Calm - N/A   Clear